Volver al catálogo

HULIANWANG DIGUI-45

ActivoComunicacionesLEO
NORAD 65048·PAYLOAD·🇨🇳 China

Lanzado Jul 30, 2025 desde Wenchang Space Launch Site

Loading…

Próximos Pases (próximas 24 horas)

TLE

ActualizadoSource: Space-Track

Época: Sep 14, 2026, 21:19 UTC

1 65048U 25162F   26257.88855699 -.00000077  00000-0  10217-3 0  9998
2 65048  50.0052 303.9889 0000707 260.0033 100.0759 13.29326621 55293

Sigue HULIANWANG DIGUI-45 en tiempo real con AllMySat

Download on the App Store